• en France
  • Liste des pays
  • À 7 jours
  • Température de l'eau
  • Carte satellitaire
  • Carte météo
  • Widgets météo
  • user-avatar
    Se connecter

    Météo par heure à Lukmos

    Ce jour, 21 Juillet, Samedi

    Heure Température Précipitation Vent Pression Humidité
    00:00 +20°C° 0 mm 2 m/s 742 mmHg 92%
    01:00 +20°C° 0 mm 2 m/s 742 mmHg 93%
    02:00 +20°C° 0 mm 2 m/s 743 mmHg 93%
    03:00 +19°C° 0 mm 2 m/s 743 mmHg 95%
    04:00 +20°C° 0,1 mm 3 m/s 743 mmHg 94%
    05:00 +20°C° 0,1 mm 3 m/s 743 mmHg 94%
    06:00 +20°C° 0,1 mm 3 m/s 743 mmHg 94%
    07:00 +21°C° 0 mm 3 m/s 743 mmHg 89%
    08:00 +23°C° 0 mm 4 m/s 743 mmHg 84%
    09:00 +23°C° 0 mm 4 m/s 743 mmHg 80%
    10:00 +25°C° 0,1 mm 4 m/s 743 mmHg 75%
    11:00 +27°C° 0,1 mm 4 m/s 743 mmHg 69%
    12:00 +28°C° 0,1 mm 5 m/s 743 mmHg 64%
    13:00 +28°C° 0,4 mm 5 m/s 743 mmHg 64%
    14:00 +28°C° 0,4 mm 5 m/s 743 mmHg 64%
    15:00 +28°C° 0,4 mm 6 m/s 743 mmHg 65%
    16:00 +28°C° 0,5 mm 5 m/s 743 mmHg 68%
    17:00 +27°C° 0,5 mm 5 m/s 743 mmHg 72%
    18:00 +27°C° 0,5 mm 5 m/s 743 mmHg 76%
    19:00 +25°C° 0,1 mm 4 m/s 743 mmHg 80%
    20:00 +23°C° 0,1 mm 4 m/s 743 mmHg 84%
    21:00 +22°C° 0,1 mm 4 m/s 743 mmHg 88%
    22:00 +21°C° 0 mm 4 m/s 743 mmHg 90%
    23:00 +21°C° 0 mm 4 m/s 743 mmHg 92%

    Demain, 22 Juillet, Dimanche

    Heure Température Précipitation Vent Pression Humidité
    00:00 +20°C° 0 mm 4 m/s 743 mmHg 94%
    01:00 +20°C° 0 mm 4 m/s 743 mmHg 95%
    02:00 +20°C° 0 mm 4 m/s 743 mmHg 95%
    03:00 +19°C° 0 mm 4 m/s 744 mmHg 95%
    04:00 +20°C° 0 mm 4 m/s 744 mmHg 94%
    05:00 +20°C° 0 mm 4 m/s 744 mmHg 94%
    06:00 +20°C° 0 mm 4 m/s 744 mmHg 93%
    07:00 +20°C° 0 mm 5 m/s 744 mmHg 91%
    08:00 +21°C° 0 mm 5 m/s 744 mmHg 89%
    09:00 +21°C° 0 mm 5 m/s 744 mmHg 87%
    10:00 +21°C° 0 mm 5 m/s 744 mmHg 85%
    11:00 +22°C° 0 mm 5 m/s 744 mmHg 84%
    12:00 +22°C° 0 mm 6 m/s 745 mmHg 82%
    13:00 +22°C° 0,1 mm 6 m/s 745 mmHg 82%
    14:00 +22°C° 0,1 mm 6 m/s 745 mmHg 82%
    15:00 +22°C° 0,1 mm 6 m/s 745 mmHg 81%
    16:00 +21°C° 0,1 mm 6 m/s 745 mmHg 82%
    17:00 +21°C° 0,1 mm 6 m/s 745 mmHg 82%
    18:00 +21°C° 0,1 mm 6 m/s 745 mmHg 83%
    19:00 +20°C° 0,1 mm 6 m/s 745 mmHg 84%
    20:00 +19°C° 0,1 mm 5 m/s 745 mmHg 86%
    21:00 +19°C° 0,1 mm 5 m/s 745 mmHg 87%
    22:00 +19°C° 0,2 mm 5 m/s 745 mmHg 89%
    23:00 +19°C° 0,2 mm 5 m/s 745 mmHg 90%

    Après-demain, 23 Juillet, Lundi

    Heure Température Précipitation Vent Pression Humidité
    00:00 +17°C° 0,2 mm 5 m/s 745 mmHg 91%
    01:00 +17°C° 0,1 mm 5 m/s 745 mmHg 92%
    02:00 +17°C° 0,1 mm 5 m/s 745 mmHg 92%
    03:00 +17°C° 0,1 mm 5 m/s 745 mmHg 92%
    04:00 +17°C° 0,1 mm 5 m/s 745 mmHg 92%
    05:00 +17°C° 0,1 mm 5 m/s 745 mmHg 92%
    06:00 +17°C° 0,1 mm 5 m/s 745 mmHg 92%
    07:00 +17°C° 0,1 mm 5 m/s 745 mmHg 90%
    08:00 +19°C° 0,1 mm 5 m/s 745 mmHg 88%
    09:00 +19°C° 0,1 mm 6 m/s 745 mmHg 86%
    10:00 +20°C° 0 mm 6 m/s 745 mmHg 83%
    11:00 +21°C° 0 mm 6 m/s 745 mmHg 80%
    12:00 +22°C° 0 mm 6 m/s 745 mmHg 76%
    13:00 +22°C° 0 mm 6 m/s 745 mmHg 75%
    14:00 +23°C° 0 mm 6 m/s 745 mmHg 74%
    15:00 +23°C° 0 mm 6 m/s 745 mmHg 73%
    16:00 +23°C° 0,3 mm 6 m/s 745 mmHg 76%
    17:00 +22°C° 0,3 mm 6 m/s 745 mmHg 80%
    18:00 +22°C° 0,3 mm 6 m/s 745 mmHg 84%
    19:00 +21°C° 0,1 mm 5 m/s 746 mmHg 85%
    20:00 +21°C° 0,1 mm 5 m/s 746 mmHg 87%
    21:00 +20°C° 0,1 mm 5 m/s 746 mmHg 89%
    22:00 +20°C° 0,5 mm 5 m/s 746 mmHg 89%
    23:00 +19°C° 0,5 mm 5 m/s 746 mmHg 89%

    24 Juillet, Mardi

    Heure Température Précipitation Vent Pression Humidité
    00:00 +19°C° 0,5 mm 5 m/s 746 mmHg 89%
    01:00 +17°C° 0,1 mm 5 m/s 746 mmHg 90%
    02:00 +17°C° 0,1 mm 5 m/s 746 mmHg 90%
    03:00 +16°C° 0,1 mm 5 m/s 747 mmHg 90%
    04:00 +16°C° 0,4 mm 5 m/s 747 mmHg 90%
    05:00 +16°C° 0,4 mm 5 m/s 747 mmHg 90%
    06:00 +16°C° 0,4 mm 5 m/s 747 mmHg 90%
    07:00 +17°C° 0,1 mm 5 m/s 747 mmHg 86%
    08:00 +20°C° 0,1 mm 5 m/s 748 mmHg 82%
    09:00 +21°C° 0,1 mm 5 m/s 748 mmHg 78%
    10:00 +23°C° 0,1 mm 5 m/s 748 mmHg 74%
    11:00 +25°C° 0,1 mm 5 m/s 748 mmHg 69%
    12:00 +27°C° 0,1 mm 5 m/s 748 mmHg 65%
    13:00 +27°C° 0,2 mm 6 m/s 748 mmHg 63%
    14:00 +28°C° 0,2 mm 6 m/s 748 mmHg 61%
    15:00 +28°C° 0,2 mm 6 m/s 749 mmHg 59%
    16:00 +28°C° 0,1 mm 5 m/s 749 mmHg 62%
    17:00 +27°C° 0,1 mm 5 m/s 749 mmHg 66%
    18:00 +26°C° 0,1 mm 4 m/s 749 mmHg 70%
    19:00 +25°C° 0,1 mm 4 m/s 749 mmHg 72%
    20:00 +23°C° 0,1 mm 4 m/s 750 mmHg 74%
    21:00 +22°C° 0,1 mm 4 m/s 750 mmHg 76%
    22:00 +22°C° 0 mm 4 m/s 750 mmHg 75%
    23:00 +21°C° 0 mm 4 m/s 750 mmHg 74%

    25 Juillet, Mercredi

    Heure Température Précipitation Vent Pression Humidité
    00:00 +21°C° 0 mm 4 m/s 750 mmHg 73%
    01:00 +20°C° 0 mm 4 m/s 751 mmHg 71%
    02:00 +20°C° 0 mm 4 m/s 751 mmHg 70%
    03:00 +20°C° 0 mm 4 m/s 751 mmHg 69%
    04:00 +19°C° 0 mm 4 m/s 751 mmHg 70%
    05:00 +19°C° 0 mm 4 m/s 751 mmHg 70%
    06:00 +19°C° 0 mm 4 m/s 751 mmHg 71%
    07:00 +19°C° 0 mm 4 m/s 752 mmHg 70%
    08:00 +20°C° 0 mm 4 m/s 752 mmHg 69%
    09:00 +21°C° 0 mm 4 m/s 752 mmHg 68%
    10:00 +22°C° 0 mm 4 m/s 752 mmHg 64%
    11:00 +23°C° 0 mm 5 m/s 753 mmHg 59%
    12:00 +26°C° 0 mm 5 m/s 753 mmHg 55%
    13:00 +26°C° 0 mm 4 m/s 753 mmHg 55%
    14:00 +26°C° 0 mm 4 m/s 753 mmHg 54%
    15:00 +26°C° 0 mm 4 m/s 752 mmHg 54%
    16:00 +26°C° 0 mm 4 m/s 752 mmHg 57%
    17:00 +26°C° 0 mm 4 m/s 752 mmHg 61%
    18:00 +26°C° 0 mm 3 m/s 752 mmHg 64%
    19:00 +25°C° 0 mm 3 m/s 753 mmHg 67%
    20:00 +24°C° 0 mm 3 m/s 753 mmHg 71%
    21:00 +22°C° 0 mm 3 m/s 753 mmHg 74%
    22:00 +22°C° 0 mm 3 m/s 753 mmHg 77%
    23:00 +21°C° 0 mm 3 m/s 753 mmHg 80%

    26 Juillet, Jeudi

    Heure Température Précipitation Vent Pression Humidité
    00:00 +21°C° 0 mm 3 m/s 753 mmHg 83%
    01:00 +20°C° 0 mm 4 m/s 753 mmHg 84%
    02:00 +20°C° 0 mm 4 m/s 753 mmHg 85%
    03:00 +20°C° 0 mm 4 m/s 753 mmHg 85%
    04:00 +20°C° 0 mm 4 m/s 753 mmHg 84%
    05:00 +20°C° 0 mm 4 m/s 754 mmHg 83%
    06:00 +20°C° 0 mm 4 m/s 754 mmHg 82%
    07:00 +22°C° 0 mm 5 m/s 754 mmHg 77%
    08:00 +23°C° 0 mm 5 m/s 754 mmHg 72%
    09:00 +26°C° 0 mm 5 m/s 754 mmHg 67%
    10:00 +27°C° 0 mm 5 m/s 754 mmHg 61%
    11:00 +29°C° 0 mm 5 m/s 754 mmHg 56%
    12:00 +30°C° 0 mm 5 m/s 754 mmHg 51%
    13:00 +30°C° 0 mm 5 m/s 754 mmHg 50%
    14:00 +32°C° 0 mm 5 m/s 754 mmHg 48%
    15:00 +32°C° 0 mm 5 m/s 754 mmHg 47%
    16:00 +32°C° 0 mm 4 m/s 754 mmHg 51%
    17:00 +30°C° 0 mm 4 m/s 754 mmHg 55%
    18:00 +29°C° 0 mm 3 m/s 754 mmHg 59%
    19:00 +28°C° 0 mm 3 m/s 754 mmHg 63%
    20:00 +26°C° 0 mm 3 m/s 755 mmHg 68%
    21:00 +24°C° 0 mm 3 m/s 755 mmHg 72%
    22:00 +22°C° 0 mm 3 m/s 755 mmHg 74%
    23:00 +21°C° 0 mm 3 m/s 755 mmHg 77%
    Voir plus